owner,sensor,date,latitude,longitude,vertical_datum,sea_water_practical_salinity,qcFlag 
COMPS,ioos:station:USF.COMPS:NFB:1,2009-03-01T00:00:00Z,25.0840,-81.0960,1.0,34.472,1111122 
COMPS,ioos:station:USF.COMPS:NFB:1,2009-03-01T00:06:00Z,25.0840,-81.0960,1.0,34.48,1111122 
COMPS,ioos:station:USF.COMPS:NFB:1,2009-03-01T00:12:00Z,25.0840,-81.0960,1.0,34.48,1111122 
COMPS,ioos:station:USF.COMPS:NFB:1,2009-03-01T00:18:00Z,25.0840,-81.0960,1.0,34.48,1111122 
COMPS,ioos:station:USF.COMPS:NFB:1,2009-03-01T00:24:00Z,25.0840,-81.0960,1.0,34.48,1111122 
COMPS,ioos:station:USF.COMPS:NFB:1,2009-03-01T00:30:00Z,25.0840,-81.0960,1.0,34.48,1111122 
COMPS,ioos:station:USF.COMPS:NFB:1,2009-03-01T00:36:00Z,25.0840,-81.0960,1.0,34.488,1111122 
COMPS,ioos:station:USF.COMPS:NFB:1,2009-03-01T00:42:00Z,25.0840,-81.0960,1.0,34.488,1111122 
COMPS,ioos:station:USF.COMPS:NFB:1,2009-03-01T00:48:00Z,25.0840,-81.0960,1.0,34.488,1111122 
COMPS,ioos:station:USF.COMPS:NFB:1,2009-03-01T00:54:00Z,25.0840,-81.0960,1.0,34.409,1111122 
COMPS,ioos:station:USF.COMPS:NFB:1,2009-03-01T01:00:00Z,25.0840,-81.0960,1.0,34.409,1111122 
COMPS,ioos:station:USF.COMPS:NFB:1,2009-03-01T01:06:00Z,25.0840,-81.0960,1.0,34.409,1111122 
COMPS,ioos:station:USF.COMPS:NFB:1,2009-03-01T01:12:00Z,25.0840,-81.0960,1.0,34.401,1111122 
COMPS,ioos:station:USF.COMPS:NFB:1,2009-03-01T01:18:00Z,25.0840,-81.0960,1.0,34.401,1111122 
COMPS,ioos:station:USF.COMPS:NFB:1,2009-03-01T01:24:00Z,25.0840,-81.0960,1.0,34.401,1111122 
COMPS,ioos:station:USF.COMPS:NFB:1,2009-03-01T01:30:00Z,25.0840,-81.0960,1.0,34.314,1111122 
COMPS,ioos:station:USF.COMPS:NFB:1,2009-03-01T01:36:00Z,25.0840,-81.0960,1.0,34.314,1111122 
COMPS,ioos:station:USF.COMPS:NFB:1,2009-03-01T01:42:00Z,25.0840,-81.0960,1.0,34.306,1111122 
COMPS,ioos:station:USF.COMPS:NFB:1,2009-03-01T01:48:00Z,25.0840,-81.0960,1.0,34.377,1111122 
COMPS,ioos:station:USF.COMPS:NFB:1,2009-03-01T01:54:00Z,25.0840,-81.0960,1.0,34.361,1111122 
COMPS,ioos:station:USF.COMPS:NFB:1,2009-03-01T02:00:00Z,25.0840,-81.0960,1.0,34.424,1111122 
COMPS,ioos:station:USF.COMPS:NFB:1,2009-03-01T02:06:00Z,25.0840,-81.0960,1.0,34.4,1111122 
COMPS,ioos:station:USF.COMPS:NFB:1,2009-03-01T02:12:00Z,25.0840,-81.0960,1.0,34.455,1111122 
COMPS,ioos:station:USF.COMPS:NFB:1,2009-03-01T02:18:00Z,25.0840,-81.0960,1.0,34.51,1111122 
COMPS,ioos:station:USF.COMPS:NFB:1,2009-03-01T02:24:00Z,25.0840,-81.0960,1.0,34.565,1111122 
COMPS,ioos:station:USF.COMPS:NFB:1,2009-03-01T02:30:00Z,25.0840,-81.0960,1.0,34.612,1111122 
COMPS,ioos:station:USF.COMPS:NFB:1,2009-03-01T02:36:00Z,25.0840,-81.0960,1.0,34.588,1111122 
COMPS,ioos:station:USF.COMPS:NFB:1,2009-03-01T02:42:00Z,25.0840,-81.0960,1.0,34.651,1111122 
COMPS,ioos:station:USF.COMPS:NFB:1,2009-03-01T02:48:00Z,25.0840,-81.0960,1.0,34.627,1111122 
COMPS,ioos:station:USF.COMPS:NFB:1,2009-03-01T02:54:00Z,25.0840,-81.0960,1.0,34.69,1111122 
COMPS,ioos:station:USF.COMPS:NFB:1,2009-03-01T03:00:00Z,25.0840,-81.0960,1.0,34.682,1111122 
COMPS,ioos:station:USF.COMPS:NFB:1,2009-03-01T03:06:00Z,25.0840,-81.0960,1.0,34.674,1111122 
COMPS,ioos:station:USF.COMPS:NFB:1,2009-03-01T03:12:00Z,25.0840,-81.0960,1.0,34.666,1111122 
COMPS,ioos:station:USF.COMPS:NFB:1,2009-03-01T03:18:00Z,25.0840,-81.0960,1.0,34.658,1111122 
COMPS,ioos:station:USF.COMPS:NFB:1,2009-03-01T03:24:00Z,25.0840,-81.0960,1.0,34.634,1111122 
COMPS,ioos:station:USF.COMPS:NFB:1,2009-03-01T03:30:00Z,25.0840,-81.0960,1.0,34.672,1111122 
COMPS,ioos:station:USF.COMPS:NFB:1,2009-03-01T03:36:00Z,25.0840,-81.0960,1.0,34.639,1111122 
COMPS,ioos:station:USF.COMPS:NFB:1,2009-03-01T03:42:00Z,25.0840,-81.0960,1.0,34.738,1111122 
COMPS,ioos:station:USF.COMPS:NFB:1,2009-03-01T03:48:00Z,25.0840,-81.0960,1.0,34.742,1111122 
COMPS,ioos:station:USF.COMPS:NFB:1,2009-03-01T03:54:00Z,25.0840,-81.0960,1.0,34.748,1111122 
COMPS,ioos:station:USF.COMPS:NFB:1,2009-03-01T04:00:00Z,25.0840,-81.0960,1.0,34.708,1111122 
COMPS,ioos:station:USF.COMPS:NFB:1,2009-03-01T04:06:00Z,25.0840,-81.0960,1.0,34.708,1111122 
COMPS,ioos:station:USF.COMPS:NFB:1,2009-03-01T04:12:00Z,25.0840,-81.0960,1.0,34.716,1111122 
COMPS,ioos:station:USF.COMPS:NFB:1,2009-03-01T04:18:00Z,25.0840,-81.0960,1.0,34.794,1111122 
COMPS,ioos:station:USF.COMPS:NFB:1,2009-03-01T04:24:00Z,25.0840,-81.0960,1.0,34.802,1111122 
COMPS,ioos:station:USF.COMPS:NFB:1,2009-03-01T04:30:00Z,25.0840,-81.0960,1.0,34.802,1111122 
COMPS,ioos:station:USF.COMPS:NFB:1,2009-03-01T04:36:00Z,25.0840,-81.0960,1.0,34.81,1111122 
COMPS,ioos:station:USF.COMPS:NFB:1,2009-03-01T04:42:00Z,25.0840,-81.0960,1.0,34.818,1111122 
COMPS,ioos:station:USF.COMPS:NFB:1,2009-03-01T04:48:00Z,25.0840,-81.0960,1.0,34.834,1111122 
COMPS,ioos:station:USF.COMPS:NFB:1,2009-03-01T04:54:00Z,25.0840,-81.0960,1.0,34.834,1111122 
COMPS,ioos:station:USF.COMPS:NFB:1,2009-03-01T05:00:00Z,25.0840,-81.0960,1.0,34.842,1111122 
COMPS,ioos:station:USF.COMPS:NFB:1,2009-03-01T05:06:00Z,25.0840,-81.0960,1.0,34.764,1111122 
COMPS,ioos:station:USF.COMPS:NFB:1,2009-03-01T05:12:00Z,25.0840,-81.0960,1.0,34.834,1111122 
COMPS,ioos:station:USF.COMPS:NFB:1,2009-03-01T05:18:00Z,25.0840,-81.0960,1.0,34.748,1111122 
COMPS,ioos:station:USF.COMPS:NFB:1,2009-03-01T05:24:00Z,25.0840,-81.0960,1.0,34.818,1111122 
COMPS,ioos:station:USF.COMPS:NFB:1,2009-03-01T05:30:00Z,25.0840,-81.0960,1.0,34.81,1111122 
COMPS,ioos:station:USF.COMPS:NFB:1,2009-03-01T05:36:00Z,25.0840,-81.0960,1.0,34.802,1111122 
COMPS,ioos:station:USF.COMPS:NFB:1,2009-03-01T05:42:00Z,25.0840,-81.0960,1.0,34.786,1111122 
COMPS,ioos:station:USF.COMPS:NFB:1,2009-03-01T05:48:00Z,25.0840,-81.0960,1.0,34.778,1111122 
COMPS,ioos:station:USF.COMPS:NFB:1,2009-03-01T05:54:00Z,25.0840,-81.0960,1.0,34.802,1111122 
COMPS,ioos:station:USF.COMPS:NFB:1,2009-03-01T06:00:00Z,25.0840,-81.0960,1.0,34.834,1111122 
COMPS,ioos:station:USF.COMPS:NFB:1,2009-03-01T06:06:00Z,25.0840,-81.0960,1.0,34.766,1111122 
COMPS,ioos:station:USF.COMPS:NFB:1,2009-03-01T06:12:00Z,25.0840,-81.0960,1.0,34.738,1111122 
COMPS,ioos:station:USF.COMPS:NFB:1,2009-03-01T06:18:00Z,25.0840,-81.0960,1.0,34.748,1111122 
COMPS,ioos:station:USF.COMPS:NFB:1,2009-03-01T06:24:00Z,25.0840,-81.0960,1.0,34.648,1111122 
COMPS,ioos:station:USF.COMPS:NFB:1,2009-03-01T06:30:00Z,25.0840,-81.0960,1.0,34.666,1111122 
COMPS,ioos:station:USF.COMPS:NFB:1,2009-03-01T06:36:00Z,25.0840,-81.0960,1.0,34.611,1111122 
COMPS,ioos:station:USF.COMPS:NFB:1,2009-03-01T06:42:00Z,25.0840,-81.0960,1.0,34.619,1111122 
COMPS,ioos:station:USF.COMPS:NFB:1,2009-03-01T06:48:00Z,25.0840,-81.0960,1.0,34.627,1111122 
COMPS,ioos:station:USF.COMPS:NFB:1,2009-03-01T06:54:00Z,25.0840,-81.0960,1.0,34.556,1111122 
COMPS,ioos:station:USF.COMPS:NFB:1,2009-03-01T07:00:00Z,25.0840,-81.0960,1.0,34.58,1111122 
COMPS,ioos:station:USF.COMPS:NFB:1,2009-03-01T07:06:00Z,25.0840,-81.0960,1.0,34.533,1111122 
COMPS,ioos:station:USF.COMPS:NFB:1,2009-03-01T07:12:00Z,25.0840,-81.0960,1.0,34.573,1111122 
COMPS,ioos:station:USF.COMPS:NFB:1,2009-03-01T07:18:00Z,25.0840,-81.0960,1.0,34.534,1111122 
COMPS,ioos:station:USF.COMPS:NFB:1,2009-03-01T07:24:00Z,25.0840,-81.0960,1.0,34.495,1111122 
COMPS,ioos:station:USF.COMPS:NFB:1,2009-03-01T07:30:00Z,25.0840,-81.0960,1.0,34.448,1111122 
COMPS,ioos:station:USF.COMPS:NFB:1,2009-03-01T07:36:00Z,25.0840,-81.0960,1.0,34.409,1111122 
COMPS,ioos:station:USF.COMPS:NFB:1,2009-03-01T07:42:00Z,25.0840,-81.0960,1.0,34.433,1111122 
COMPS,ioos:station:USF.COMPS:NFB:1,2009-03-01T07:48:00Z,25.0840,-81.0960,1.0,34.37,1111122 
COMPS,ioos:station:USF.COMPS:NFB:1,2009-03-01T07:54:00Z,25.0840,-81.0960,1.0,34.378,1111122 
COMPS,ioos:station:USF.COMPS:NFB:1,2009-03-01T08:00:00Z,25.0840,-81.0960,1.0,34.394,1111122 
COMPS,ioos:station:USF.COMPS:NFB:1,2009-03-01T08:06:00Z,25.0840,-81.0960,1.0,34.402,1111122 
COMPS,ioos:station:USF.COMPS:NFB:1,2009-03-01T08:12:00Z,25.0840,-81.0960,1.0,34.418,1111122 
COMPS,ioos:station:USF.COMPS:NFB:1,2009-03-01T08:18:00Z,25.0840,-81.0960,1.0,34.434,1111122 
COMPS,ioos:station:USF.COMPS:NFB:1,2009-03-01T08:24:00Z,25.0840,-81.0960,1.0,34.434,1111122 
COMPS,ioos:station:USF.COMPS:NFB:1,2009-03-01T08:30:00Z,25.0840,-81.0960,1.0,34.442,1111122 
COMPS,ioos:station:USF.COMPS:NFB:1,2009-03-01T08:36:00Z,25.0840,-81.0960,1.0,34.45,1111122 
COMPS,ioos:station:USF.COMPS:NFB:1,2009-03-01T08:42:00Z,25.0840,-81.0960,1.0,34.458,1111122 
COMPS,ioos:station:USF.COMPS:NFB:1,2009-03-01T08:48:00Z,25.0840,-81.0960,1.0,34.466,1111122 
COMPS,ioos:station:USF.COMPS:NFB:1,2009-03-01T08:54:00Z,25.0840,-81.0960,1.0,34.466,1111122 
COMPS,ioos:station:USF.COMPS:NFB:1,2009-03-01T09:00:00Z,25.0840,-81.0960,1.0,34.466,1111122 
COMPS,ioos:station:USF.COMPS:NFB:1,2009-03-01T09:06:00Z,25.0840,-81.0960,1.0,34.474,1111122 
COMPS,ioos:station:USF.COMPS:NFB:1,2009-03-01T09:12:00Z,25.0840,-81.0960,1.0,34.482,1111122 
COMPS,ioos:station:USF.COMPS:NFB:1,2009-03-01T09:18:00Z,25.0840,-81.0960,1.0,34.482,1111122 
COMPS,ioos:station:USF.COMPS:NFB:1,2009-03-01T09:24:00Z,25.0840,-81.0960,1.0,34.482,1111122 
COMPS,ioos:station:USF.COMPS:NFB:1,2009-03-01T09:30:00Z,25.0840,-81.0960,1.0,34.49,1111122 
COMPS,ioos:station:USF.COMPS:NFB:1,2009-03-01T09:36:00Z,25.0840,-81.0960,1.0,34.49,1111122 
COMPS,ioos:station:USF.COMPS:NFB:1,2009-03-01T09:42:00Z,25.0840,-81.0960,1.0,34.498,1111122 
COMPS,ioos:station:USF.COMPS:NFB:1,2009-03-01T09:48:00Z,25.0840,-81.0960,1.0,34.498,1111122 
COMPS,ioos:station:USF.COMPS:NFB:1,2009-03-01T09:54:00Z,25.0840,-81.0960,1.0,34.498,1111122 
COMPS,ioos:station:USF.COMPS:NFB:1,2009-03-01T10:00:00Z,25.0840,-81.0960,1.0,34.506,1111122 
COMPS,ioos:station:USF.COMPS:NFB:1,2009-03-01T10:06:00Z,25.0840,-81.0960,1.0,34.506,1111122 
COMPS,ioos:station:USF.COMPS:NFB:1,2009-03-01T10:12:00Z,25.0840,-81.0960,1.0,34.514,1111122 
COMPS,ioos:station:USF.COMPS:NFB:1,2009-03-01T10:18:00Z,25.0840,-81.0960,1.0,34.514,1111122 
COMPS,ioos:station:USF.COMPS:NFB:1,2009-03-01T10:24:00Z,25.0840,-81.0960,1.0,34.514,1111122 
COMPS,ioos:station:USF.COMPS:NFB:1,2009-03-01T10:30:00Z,25.0840,-81.0960,1.0,34.514,1111122 
COMPS,ioos:station:USF.COMPS:NFB:1,2009-03-01T10:36:00Z,25.0840,-81.0960,1.0,34.522,1111122 
COMPS,ioos:station:USF.COMPS:NFB:1,2009-03-01T10:42:00Z,25.0840,-81.0960,1.0,34.522,1111122 
COMPS,ioos:station:USF.COMPS:NFB:1,2009-03-01T10:48:00Z,25.0840,-81.0960,1.0,34.522,1111122 
COMPS,ioos:station:USF.COMPS:NFB:1,2009-03-01T10:54:00Z,25.0840,-81.0960,1.0,34.522,1111122 
COMPS,ioos:station:USF.COMPS:NFB:1,2009-03-01T11:00:00Z,25.0840,-81.0960,1.0,34.522,1111122 
COMPS,ioos:station:USF.COMPS:NFB:1,2009-03-01T11:06:00Z,25.0840,-81.0960,1.0,34.522,1111122 
COMPS,ioos:station:USF.COMPS:NFB:1,2009-03-01T11:12:00Z,25.0840,-81.0960,1.0,34.522,1111122 
COMPS,ioos:station:USF.COMPS:NFB:1,2009-03-01T11:18:00Z,25.0840,-81.0960,1.0,34.522,1111122 
COMPS,ioos:station:USF.COMPS:NFB:1,2009-03-01T11:24:00Z,25.0840,-81.0960,1.0,34.522,1111122 
COMPS,ioos:station:USF.COMPS:NFB:1,2009-03-01T11:30:00Z,25.0840,-81.0960,1.0,34.522,1111122 
COMPS,ioos:station:USF.COMPS:NFB:1,2009-03-01T11:36:00Z,25.0840,-81.0960,1.0,34.522,1111122 
COMPS,ioos:station:USF.COMPS:NFB:1,2009-03-01T11:42:00Z,25.0840,-81.0960,1.0,34.522,1111122 
COMPS,ioos:station:USF.COMPS:NFB:1,2009-03-01T11:48:00Z,25.0840,-81.0960,1.0,34.522,1111122 
COMPS,ioos:station:USF.COMPS:NFB:1,2009-03-01T11:54:00Z,25.0840,-81.0960,1.0,34.443,1111122 
COMPS,ioos:station:USF.COMPS:NFB:1,2009-03-01T12:00:00Z,25.0840,-81.0960,1.0,34.443,1111122 
COMPS,ioos:station:USF.COMPS:NFB:1,2009-03-01T12:06:00Z,25.0840,-81.0960,1.0,34.443,1111122 
COMPS,ioos:station:USF.COMPS:NFB:1,2009-03-01T12:12:00Z,25.0840,-81.0960,1.0,34.443,1111122 
COMPS,ioos:station:USF.COMPS:NFB:1,2009-03-01T12:18:00Z,25.0840,-81.0960,1.0,34.443,1111122 
COMPS,ioos:station:USF.COMPS:NFB:1,2009-03-01T12:24:00Z,25.0840,-81.0960,1.0,34.443,1111122 
COMPS,ioos:station:USF.COMPS:NFB:1,2009-03-01T12:30:00Z,25.0840,-81.0960,1.0,34.443,1111122 
COMPS,ioos:station:USF.COMPS:NFB:1,2009-03-01T12:36:00Z,25.0840,-81.0960,1.0,34.435,1111122 
COMPS,ioos:station:USF.COMPS:NFB:1,2009-03-01T12:42:00Z,25.0840,-81.0960,1.0,34.435,1111122 
COMPS,ioos:station:USF.COMPS:NFB:1,2009-03-01T12:48:00Z,25.0840,-81.0960,1.0,34.435,1111122 
COMPS,ioos:station:USF.COMPS:NFB:1,2009-03-01T12:54:00Z,25.0840,-81.0960,1.0,34.435,1111122 
COMPS,ioos:station:USF.COMPS:NFB:1,2009-03-01T13:00:00Z,25.0840,-81.0960,1.0,34.435,1111122 
COMPS,ioos:station:USF.COMPS:NFB:1,2009-03-01T13:06:00Z,25.0840,-81.0960,1.0,34.435,1111122 
COMPS,ioos:station:USF.COMPS:NFB:1,2009-03-01T13:12:00Z,25.0840,-81.0960,1.0,34.426,1111122 
COMPS,ioos:station:USF.COMPS:NFB:1,2009-03-01T13:18:00Z,25.0840,-81.0960,1.0,34.418,1111122 
COMPS,ioos:station:USF.COMPS:NFB:1,2009-03-01T13:24:00Z,25.0840,-81.0960,1.0,34.41,1111122 
COMPS,ioos:station:USF.COMPS:NFB:1,2009-03-01T13:30:00Z,25.0840,-81.0960,1.0,34.402,1111122 
COMPS,ioos:station:USF.COMPS:NFB:1,2009-03-01T13:36:00Z,25.0840,-81.0960,1.0,34.315,1111122 
COMPS,ioos:station:USF.COMPS:NFB:1,2009-03-01T13:42:00Z,25.0840,-81.0960,1.0,34.315,1111122 
COMPS,ioos:station:USF.COMPS:NFB:1,2009-03-01T13:48:00Z,25.0840,-81.0960,1.0,34.386,1111122 
COMPS,ioos:station:USF.COMPS:NFB:1,2009-03-01T13:54:00Z,25.0840,-81.0960,1.0,34.37,1111122 
COMPS,ioos:station:USF.COMPS:NFB:1,2009-03-01T14:00:00Z,25.0840,-81.0960,1.0,34.354,1111122 
COMPS,ioos:station:USF.COMPS:NFB:1,2009-03-01T14:06:00Z,25.0840,-81.0960,1.0,34.338,1111122 
COMPS,ioos:station:USF.COMPS:NFB:1,2009-03-01T14:12:00Z,25.0840,-81.0960,1.0,34.322,1111122 
COMPS,ioos:station:USF.COMPS:NFB:1,2009-03-01T14:18:00Z,25.0840,-81.0960,1.0,34.306,1111122 
COMPS,ioos:station:USF.COMPS:NFB:1,2009-03-01T14:24:00Z,25.0840,-81.0960,1.0,34.37,1111122 
COMPS,ioos:station:USF.COMPS:NFB:1,2009-03-01T14:30:00Z,25.0840,-81.0960,1.0,34.346,1111122 
COMPS,ioos:station:USF.COMPS:NFB:1,2009-03-01T14:36:00Z,25.0840,-81.0960,1.0,34.401,1111122 
COMPS,ioos:station:USF.COMPS:NFB:1,2009-03-01T14:42:00Z,25.0840,-81.0960,1.0,34.448,1111122 
COMPS,ioos:station:USF.COMPS:NFB:1,2009-03-01T14:48:00Z,25.0840,-81.0960,1.0,34.495,1111122 
COMPS,ioos:station:USF.COMPS:NFB:1,2009-03-01T14:54:00Z,25.0840,-81.0960,1.0,34.526,1111122 
COMPS,ioos:station:USF.COMPS:NFB:1,2009-03-01T15:00:00Z,25.0840,-81.0960,1.0,34.565,1111122 
COMPS,ioos:station:USF.COMPS:NFB:1,2009-03-01T15:06:00Z,25.0840,-81.0960,1.0,34.604,1111122 
COMPS,ioos:station:USF.COMPS:NFB:1,2009-03-01T15:12:00Z,25.0840,-81.0960,1.0,34.564,1111122 
COMPS,ioos:station:USF.COMPS:NFB:1,2009-03-01T15:18:00Z,25.0840,-81.0960,1.0,34.611,1111122 
COMPS,ioos:station:USF.COMPS:NFB:1,2009-03-01T15:24:00Z,25.0840,-81.0960,1.0,34.563,1111122 
COMPS,ioos:station:USF.COMPS:NFB:1,2009-03-01T15:30:00Z,25.0840,-81.0960,1.0,34.586,1111122 
COMPS,ioos:station:USF.COMPS:NFB:1,2009-03-01T15:36:00Z,25.0840,-81.0960,1.0,34.608,1111122 
COMPS,ioos:station:USF.COMPS:NFB:1,2009-03-01T15:42:00Z,25.0840,-81.0960,1.0,34.685,1111122 
COMPS,ioos:station:USF.COMPS:NFB:1,2009-03-01T15:48:00Z,25.0840,-81.0960,1.0,34.692,1111122 
COMPS,ioos:station:USF.COMPS:NFB:1,2009-03-01T15:54:00Z,25.0840,-81.0960,1.0,34.714,1111122 
COMPS,ioos:station:USF.COMPS:NFB:1,2009-03-01T16:00:00Z,25.0840,-81.0960,1.0,34.76,1111122 
COMPS,ioos:station:USF.COMPS:NFB:1,2009-03-01T16:06:00Z,25.0840,-81.0960,1.0,34.768,1111122 
COMPS,ioos:station:USF.COMPS:NFB:1,2009-03-01T16:12:00Z,25.0840,-81.0960,1.0,34.714,1111122 
COMPS,ioos:station:USF.COMPS:NFB:1,2009-03-01T16:18:00Z,25.0840,-81.0960,1.0,34.66,1111122 
COMPS,ioos:station:USF.COMPS:NFB:1,2009-03-01T16:24:00Z,25.0840,-81.0960,1.0,34.668,1111122 
COMPS,ioos:station:USF.COMPS:NFB:1,2009-03-01T16:30:00Z,25.0840,-81.0960,1.0,34.652,1111122 
COMPS,ioos:station:USF.COMPS:NFB:1,2009-03-01T16:36:00Z,25.0840,-81.0960,1.0,34.644,1111122 
COMPS,ioos:station:USF.COMPS:NFB:1,2009-03-01T16:42:00Z,25.0840,-81.0960,1.0,34.644,1111122 
COMPS,ioos:station:USF.COMPS:NFB:1,2009-03-01T16:48:00Z,25.0840,-81.0960,1.0,34.628,1111122 
COMPS,ioos:station:USF.COMPS:NFB:1,2009-03-01T16:54:00Z,25.0840,-81.0960,1.0,34.652,1111122 
COMPS,ioos:station:USF.COMPS:NFB:1,2009-03-01T17:00:00Z,25.0840,-81.0960,1.0,34.66,1111122 
COMPS,ioos:station:USF.COMPS:NFB:1,2009-03-01T17:06:00Z,25.0840,-81.0960,1.0,34.597,1111122 
COMPS,ioos:station:USF.COMPS:NFB:1,2009-03-01T17:12:00Z,25.0840,-81.0960,1.0,34.613,1111122 
COMPS,ioos:station:USF.COMPS:NFB:1,2009-03-01T17:18:00Z,25.0840,-81.0960,1.0,34.613,1111122 
COMPS,ioos:station:USF.COMPS:NFB:1,2009-03-01T17:24:00Z,25.0840,-81.0960,1.0,34.535,1111122 
COMPS,ioos:station:USF.COMPS:NFB:1,2009-03-01T17:30:00Z,25.0840,-81.0960,1.0,34.543,1111122 
COMPS,ioos:station:USF.COMPS:NFB:1,2009-03-01T17:36:00Z,25.0840,-81.0960,1.0,34.551,1111122 
COMPS,ioos:station:USF.COMPS:NFB:1,2009-03-01T17:42:00Z,25.0840,-81.0960,1.0,34.567,1111122 
COMPS,ioos:station:USF.COMPS:NFB:1,2009-03-01T17:48:00Z,25.0840,-81.0960,1.0,34.505,1111122 
COMPS,ioos:station:USF.COMPS:NFB:1,2009-03-01T17:54:00Z,25.0840,-81.0960,1.0,34.528,1111122 
COMPS,ioos:station:USF.COMPS:NFB:1,2009-03-01T18:00:00Z,25.0840,-81.0960,1.0,34.482,1111122 
COMPS,ioos:station:USF.COMPS:NFB:1,2009-03-01T18:06:00Z,25.0840,-81.0960,1.0,34.443,1111122 
COMPS,ioos:station:USF.COMPS:NFB:1,2009-03-01T18:12:00Z,25.0840,-81.0960,1.0,34.467,1111122 
COMPS,ioos:station:USF.COMPS:NFB:1,2009-03-01T18:18:00Z,25.0840,-81.0960,1.0,34.42,1111122 
COMPS,ioos:station:USF.COMPS:NFB:1,2009-03-01T18:24:00Z,25.0840,-81.0960,1.0,34.444,1111122 
COMPS,ioos:station:USF.COMPS:NFB:1,2009-03-01T18:30:00Z,25.0840,-81.0960,1.0,34.374,1111122 
COMPS,ioos:station:USF.COMPS:NFB:1,2009-03-01T18:36:00Z,25.0840,-81.0960,1.0,34.382,1111122 
COMPS,ioos:station:USF.COMPS:NFB:1,2009-03-01T18:42:00Z,25.0840,-81.0960,1.0,34.39,1111122 
COMPS,ioos:station:USF.COMPS:NFB:1,2009-03-01T18:48:00Z,25.0840,-81.0960,1.0,34.398,1111122 
COMPS,ioos:station:USF.COMPS:NFB:1,2009-03-01T18:54:00Z,25.0840,-81.0960,1.0,34.398,1111122 
COMPS,ioos:station:USF.COMPS:NFB:1,2009-03-01T19:00:00Z,25.0840,-81.0960,1.0,34.398,1111122 
COMPS,ioos:station:USF.COMPS:NFB:1,2009-03-01T19:06:00Z,25.0840,-81.0960,1.0,34.398,1111122 
COMPS,ioos:station:USF.COMPS:NFB:1,2009-03-01T19:12:00Z,25.0840,-81.0960,1.0,34.476,1111122 
COMPS,ioos:station:USF.COMPS:NFB:1,2009-03-01T19:18:00Z,25.0840,-81.0960,1.0,34.476,1111122 
COMPS,ioos:station:USF.COMPS:NFB:1,2009-03-01T19:24:00Z,25.0840,-81.0960,1.0,34.468,1111122 
COMPS,ioos:station:USF.COMPS:NFB:1,2009-03-01T19:30:00Z,25.0840,-81.0960,1.0,34.484,1111122 
COMPS,ioos:station:USF.COMPS:NFB:1,2009-03-01T19:36:00Z,25.0840,-81.0960,1.0,34.492,1111122 
COMPS,ioos:station:USF.COMPS:NFB:1,2009-03-01T19:42:00Z,25.0840,-81.0960,1.0,34.5,1111122 
COMPS,ioos:station:USF.COMPS:NFB:1,2009-03-01T19:48:00Z,25.0840,-81.0960,1.0,34.5,1111122 
COMPS,ioos:station:USF.COMPS:NFB:1,2009-03-01T19:54:00Z,25.0840,-81.0960,1.0,34.508,1111122 
COMPS,ioos:station:USF.COMPS:NFB:1,2009-03-01T20:00:00Z,25.0840,-81.0960,1.0,34.516,1111122 
COMPS,ioos:station:USF.COMPS:NFB:1,2009-03-01T20:06:00Z,25.0840,-81.0960,1.0,34.595,1111122 
COMPS,ioos:station:USF.COMPS:NFB:1,2009-03-01T20:12:00Z,25.0840,-81.0960,1.0,34.595,1111122 
COMPS,ioos:station:USF.COMPS:NFB:1,2009-03-01T20:18:00Z,25.0840,-81.0960,1.0,34.603,1111122 
COMPS,ioos:station:USF.COMPS:NFB:1,2009-03-01T20:24:00Z,25.0840,-81.0960,1.0,34.611,1111122 
COMPS,ioos:station:USF.COMPS:NFB:1,2009-03-01T20:30:00Z,25.0840,-81.0960,1.0,34.619,1111122 
COMPS,ioos:station:USF.COMPS:NFB:1,2009-03-01T20:36:00Z,25.0840,-81.0960,1.0,34.619,1111122 
COMPS,ioos:station:USF.COMPS:NFB:1,2009-03-01T20:42:00Z,25.0840,-81.0960,1.0,34.627,1111122 
COMPS,ioos:station:USF.COMPS:NFB:1,2009-03-01T20:48:00Z,25.0840,-81.0960,1.0,34.627,1111122 
COMPS,ioos:station:USF.COMPS:NFB:1,2009-03-01T20:54:00Z,25.0840,-81.0960,1.0,34.627,1111122 
COMPS,ioos:station:USF.COMPS:NFB:1,2009-03-01T21:00:00Z,25.0840,-81.0960,1.0,34.627,1111122 
COMPS,ioos:station:USF.COMPS:NFB:1,2009-03-01T21:06:00Z,25.0840,-81.0960,1.0,34.627,1111122 
COMPS,ioos:station:USF.COMPS:NFB:1,2009-03-01T21:12:00Z,25.0840,-81.0960,1.0,34.627,1111122 
COMPS,ioos:station:USF.COMPS:NFB:1,2009-03-01T21:18:00Z,25.0840,-81.0960,1.0,34.627,1111122 
COMPS,ioos:station:USF.COMPS:NFB:1,2009-03-01T21:24:00Z,25.0840,-81.0960,1.0,34.706,1111122 
COMPS,ioos:station:USF.COMPS:NFB:1,2009-03-01T21:30:00Z,25.0840,-81.0960,1.0,34.706,1111122 
COMPS,ioos:station:USF.COMPS:NFB:1,2009-03-01T21:36:00Z,25.0840,-81.0960,1.0,34.714,1111122 
COMPS,ioos:station:USF.COMPS:NFB:1,2009-03-01T21:42:00Z,25.0840,-81.0960,1.0,34.714,1111122 
COMPS,ioos:station:USF.COMPS:NFB:1,2009-03-01T21:48:00Z,25.0840,-81.0960,1.0,34.722,1111122 
COMPS,ioos:station:USF.COMPS:NFB:1,2009-03-01T21:54:00Z,25.0840,-81.0960,1.0,34.722,1111122 
COMPS,ioos:station:USF.COMPS:NFB:1,2009-03-01T22:00:00Z,25.0840,-81.0960,1.0,34.73,1111122 
COMPS,ioos:station:USF.COMPS:NFB:1,2009-03-01T22:06:00Z,25.0840,-81.0960,1.0,34.738,1111122 
COMPS,ioos:station:USF.COMPS:NFB:1,2009-03-01T22:12:00Z,25.0840,-81.0960,1.0,34.754,1111122 
COMPS,ioos:station:USF.COMPS:NFB:1,2009-03-01T22:18:00Z,25.0840,-81.0960,1.0,34.833,1111122 
COMPS,ioos:station:USF.COMPS:NFB:1,2009-03-01T22:24:00Z,25.0840,-81.0960,1.0,34.849,1111122 
COMPS,ioos:station:USF.COMPS:NFB:1,2009-03-01T22:30:00Z,25.0840,-81.0960,1.0,34.849,1111122 
COMPS,ioos:station:USF.COMPS:NFB:1,2009-03-01T22:36:00Z,25.0840,-81.0960,1.0,34.865,1111122 
COMPS,ioos:station:USF.COMPS:NFB:1,2009-03-01T22:42:00Z,25.0840,-81.0960,1.0,34.865,1111122 
COMPS,ioos:station:USF.COMPS:NFB:1,2009-03-01T22:48:00Z,25.0840,-81.0960,1.0,34.865,1111122 
COMPS,ioos:station:USF.COMPS:NFB:1,2009-03-01T22:54:00Z,25.0840,-81.0960,1.0,34.882,1111122 
COMPS,ioos:station:USF.COMPS:NFB:1,2009-03-01T23:00:00Z,25.0840,-81.0960,1.0,34.882,1111122 
COMPS,ioos:station:USF.COMPS:NFB:1,2009-03-01T23:06:00Z,25.0840,-81.0960,1.0,34.89,1111122 
COMPS,ioos:station:USF.COMPS:NFB:1,2009-03-01T23:12:00Z,25.0840,-81.0960,1.0,34.898,1111122 
COMPS,ioos:station:USF.COMPS:NFB:1,2009-03-01T23:18:00Z,25.0840,-81.0960,1.0,34.906,1111122 
COMPS,ioos:station:USF.COMPS:NFB:1,2009-03-01T23:24:00Z,25.0840,-81.0960,1.0,34.914,1111122 
COMPS,ioos:station:USF.COMPS:NFB:1,2009-03-01T23:30:00Z,25.0840,-81.0960,1.0,34.922,1111122 
COMPS,ioos:station:USF.COMPS:NFB:1,2009-03-01T23:36:00Z,25.0840,-81.0960,1.0,34.93,1111122 
COMPS,ioos:station:USF.COMPS:NFB:1,2009-03-01T23:42:00Z,25.0840,-81.0960,1.0,34.947,1111122 
COMPS,ioos:station:USF.COMPS:NFB:1,2009-03-01T23:48:00Z,25.0840,-81.0960,1.0,34.963,1111122 
COMPS,ioos:station:USF.COMPS:NFB:1,2009-03-02T00:00:00Z,25.0840,-81.0960,1.0,34.892,1111122 
COMPS,ioos:station:USF.COMPS:NFB:1,2009-03-02T00:12:00Z,25.0840,-81.0960,1.0,34.916,1111122 
COMPS,ioos:station:USF.COMPS:NFB:1,2009-03-02T00:24:00Z,25.0840,-81.0960,1.0,34.94,1111122 
COMPS,ioos:station:USF.COMPS:NFB:1,2009-03-02T00:36:00Z,25.0840,-81.0960,1.0,34.957,1111122 
COMPS,ioos:station:USF.COMPS:NFB:1,2009-03-02T01:06:00Z,25.0840,-81.0960,1.0,34.997,1111122 
COMPS,ioos:station:USF.COMPS:NFB:1,2009-03-02T01:18:00Z,25.0840,-81.0960,1.0,35.022,1111122 
COMPS,ioos:station:USF.COMPS:NFB:1,2009-03-02T03:06:00Z,25.0840,-81.0960,1.0,34.763,1111122 
COMPS,ioos:station:USF.COMPS:NFB:1,2009-03-02T03:18:00Z,25.0840,-81.0960,1.0,34.707,1111122 
COMPS,ioos:station:USF.COMPS:NFB:1,2009-03-02T03:30:00Z,25.0840,-81.0960,1.0,34.555,1111122 
COMPS,ioos:station:USF.COMPS:NFB:1,2009-03-02T03:42:00Z,25.0840,-81.0960,1.0,34.555,1111122 
COMPS,ioos:station:USF.COMPS:NFB:1,2009-03-02T03:54:00Z,25.0840,-81.0960,1.0,34.404,1111122 
COMPS,ioos:station:USF.COMPS:NFB:1,2009-03-02T04:00:00Z,25.0840,-81.0960,1.0,34.412,1111122 
COMPS,ioos:station:USF.COMPS:NFB:1,2009-03-02T04:12:00Z,25.0840,-81.0960,1.0,34.284,1111122 
COMPS,ioos:station:USF.COMPS:NFB:1,2009-03-02T04:24:00Z,25.0840,-81.0960,1.0,34.236,1111122 
COMPS,ioos:station:USF.COMPS:NFB:1,2009-03-02T04:36:00Z,25.0840,-81.0960,1.0,34.26,1111122 
COMPS,ioos:station:USF.COMPS:NFB:1,2009-03-02T04:42:00Z,25.0840,-81.0960,1.0,34.268,1111122 
COMPS,ioos:station:USF.COMPS:NFB:1,2009-03-02T04:48:00Z,25.0840,-81.0960,1.0,34.204,1111122 
COMPS,ioos:station:USF.COMPS:NFB:1,2009-03-02T04:54:00Z,25.0840,-81.0960,1.0,34.22,1111122 